[[{"header":{"parameterUnit":"m.s-1","parameterCategory":1,"la1":30.2991,"la2":30.254,"lo1":-89.0895,"lo2":-89.0444,"dy":0.0017,"dx":0.0017,"nx":28,"ny":28,"refTime":"2024-08-24T21:00:00:Z","depth":0,"parameterNumber":2,"parameterNumberName":"U-component_of_WINDS"},"data":[0,0,0,0,0,0,0,0,0,0,0,0,0,0,0,0,0,0,0,0,0,0,0,0,0,0,0,0,0,0,0,0,0,0,0,0,0,0,0,0,0,0,0,0,0,0,0,0,0,0,0,0,0,0,0,0,0,0,0.271,0.271,0,0.2728,0.2728,0.2728,0.2771,0.2772,0.2773,0.2774,0.2789,0.2789,0.2789,0,0,0,0,0,0,0,0,0,0,0,0,0,0.2712,0.2712,0.271,0.271,0.2711,0.2728,0.2728,0.2728,0.2771,0.2772,0.2773,0.2774,0.279,0.2789,0.2789,0,0,0,0,0,0,0,0,0,0,0,0,0,0.2719,0.2712,0.271,0.2734,0.2736,0.2728,0.2728,0.2728,0.2771,0.2772,0.2773,0.2775,0.279,0.2789,0.2788,0.2757,0,0,0.2786,0.2786,0,0,0,0,0,0,0,0,0.2718,0.2718,0.273,0.2732,0.2735,0.2749,0.2735,0.2738,0.277,0.2758,0.2774,0.2775,0.2775,0.2775,0.2776,0.2758,0.2759,0.2786,0.2786,0.2786,0.2786,0,0,0,0,0,0,0,0.2718,0.2718,0.2717,0.273,0.2733,0.2744,0.2746,0.2735,0.2758,0.2759,0.2762,0.2764,0.2776,0.2776,0.2776,0.2759,0.2786,0.2786,0.2785,0.2785,0.2718,0.2716,0,0,0,0,0,0,0.2714,0.2717,0.2717,0.2718,0.273,0.2742,0.2745,0.2743,0.2758,0.2762,0.2762,0.2766,0.2776,0.2777,0.2777,0.2741,0.2786,0.2785,0.2785,0.2719,0.2717,0.2716,0,0,0,0,0,0,0.2714,0.2714,0.2716,0.2718,0.2719,0.2741,0.2738,0.2742,0.2742,0.2761,0.2765,0.2758,0.2778,0.2778,0.2762,0.2742,0.2785,0.2784,0.2721,0.2719,0.2717,0.267,0,0,0,0,0,0,0.2714,0.2713,0.2702,0.2718,0.2719,0.2701,0.2737,0.2742,0.2742,0.2746,0.2758,0.2762,0.2779,0.2763,0.2762,0.2742,0.2784,0.2723,0.272,0.2717,0.2673,0.2666,0.2661,0,0,0,0,0,0.2714,0.2687,0.2701,0.27,0.2705,0.27,0.27,0.2721,0.274,0.2728,0.2741,0.2761,0.2746,0.2761,0.276,0.274,0.2724,0.2721,0.2718,0.2676,0.2668,0.2661,0,0,0,0,0,0,0.2666,0.2689,0.2705,0.2683,0.2689,0.2707,0.2692,0.2712,0.2712,0.2715,0.2741,0.2743,0.2724,0.2731,0.2748,0.2711,0.2738,0.2735,0.2707,0.2699,0.2693,0.2691,0.2783,0,0,0,0,0,0.2654,0.2648,0.2668,0.2647,0.2649,0.267,0.2669,0.2685,0.2692,0.2694,0.2705,0.2711,0.2707,0.2704,0.2702,0.2676,0.2679,0.2662,0.2655,0.265,0.2646,0.2633,0.2625,0.2706,0.2706,0.2706,0,0,0.2627,0.2639,0.2633,0.2638,0.2644,0.2637,0.2672,0.2663,0.2658,0.2692,0.2678,0.2687,0.2695,0.2674,0.2665,0.2679,0.2625,0.2646,0.2642,0.264,0.2628,0.2621,0.2614,0.2703,0.2704,0.2704,0,0,0.2573,0.2582,0.2565,0.2572,0.2582,0.2597,0.2593,0.2609,0.2616,0.2603,0.2629,0.2623,0.2617,0.2621,0.2623,0.2574,0.2593,0.2573,0.2539,0.2526,0.2519,0.2514,0.2495,0.2489,0.2569,0.2569,0.2569,0,0.2538,0.2529,0.2554,0.2543,0.2545,0.2578,0.2561,0.2566,0.2574,0.2574,0.259,0.2583,0.2591,0.2572,0.256,0.2561,0.2556,0.257,0.2518,0.2513,0.2508,0.2491,0.2484,0.2567,0.2567,0.2567,0.2567,0,0.2484,0.2478,0.2463,0.2471,0.2471,0.2457,0.2481,0.2478,0.2494,0.2507,0.2494,0.2505,0.2505,0.2503,0.2518,0.2486,0.2494,0.2514,0.2541,0.2497,0.2481,0.2475,0.2563,0.2564,0.2564,0.2565,0,0,0.2398,0.2424,0.2417,0.2422,0.2437,0.2432,0.2421,0.2423,0.2419,0.2425,0.2415,0.241,0.2429,0.2431,0.2448,0.2436,0.2396,0.2458,0.2458,0.2445,0.236,0.2344,0.2336,0.241,0.2409,0.2408,0.2359,0,0.2347,0.2328,0.2352,0.2328,0.2322,0.2355,0.2345,0.2353,0.2366,0.2362,0.2376,0.2372,0.2398,0.2399,0.239,0.2403,0.2379,0.2407,0.24,0.2399,0.2395,0.2328,0.2309,0.2262,0.2353,0.2352,0.2352,0,0.2284,0.2288,0.2263,0.2281,0.228,0.227,0.2274,0.2271,0.2281,0.2291,0.2295,0.2316,0.2305,0.2334,0.232,0.2338,0.2337,0.2344,0.2343,0.234,0.2371,0.2322,0.2248,0.224,0.2342,0.2343,0.2344,0,0.2222,0.2221,0.2207,0.221,0.2231,0.2223,0.2231,0.2243,0.2243,0.2247,0.2248,0.225,0.2251,0.2252,0.2274,0.2293,0.2257,0.2287,0.2264,0.2263,0.2252,0.2252,0.2175,0.2255,0.2255,0.2255,0.2256,0,0.2161,0.2144,0.2179,0.217,0.2152,0.2181,0.2163,0.2174,0.2185,0.2178,0.2208,0.2201,0.2231,0.2227,0.2244,0.2229,0.223,0.2237,0.2241,0.2233,0.2232,0.2231,0.2234,0.2254,0.2254,0.2254,0.2255,0,0.2087,0.211,0.2096,0.2118,0.2123,0.2109,0.2128,0.212,0.2136,0.2127,0.2127,0.2151,0.2149,0.2171,0.2173,0.2184,0.2161,0.2172,0.2157,0.216,0.2135,0.2136,0.2052,0.2042,0.2131,0.213,0.2129,0,0.2045,0.2033,0.2055,0.2053,0.206,0.2057,0.2057,0.2086,0.2085,0.2097,0.2088,0.2088,0.2089,0.2084,0.2101,0.2103,0.2113,0.2084,0.2113,0.2106,0.2111,0.211,0.2109,0.2076,0.2075,0.2075,0.2074,0,0.1968,0.1981,0.1981,0.1986,0.1986,0.1991,0.1997,0.1994,0.2025,0.2023,0.2022,0.2023,0.2026,0.2025,0.2031,0.2039,0.2061,0.2065,0.206,0.2049,0.2041,0.2044,0.2138,0.2066,0.2067,0.2067,0.2068,0.2068,0.1908,0.1899,0.1913,0.1912,0.1921,0.1927,0.1921,0.1937,0.1937,0.1941,0.1958,0.1954,0.1966,0.1976,0.1982,0.1979,0.1993,0.1985,0.1983,0.198,0.1975,0.2044,0.198,0.1981,0.1981,0.1981,0.1981,0,0.1831,0.1842,0.1842,0.1851,0.1851,0.1874,0.1883,0.1881,0.1877,0.1887,0.1889,0.1887,0.1888,0.1906,0.1909,0.1903,0.1913,0.1902,0.1902,0.1903,0.1963,0.1966,0.1894,0.1894,0.1894,0.1894,0.1894,0.1894,0.179,0.1776,0.1791,0.1782,0.1794,0.179,0.1793,0.1799,0.1807,0.1804,0.1805,0.1818,0.1832,0.1836,0.1838,0.1844,0.1842,0.1828,0.1836,0.1891,0.1899,0.1907,0.1911,0.1828,0.1828,0.1777,0.1777,0.1776]},{"header":{"parameterUnit":"m.s-1","parameterCategory":1,"la1":30.2991,"la2":30.254,"lo1":-89.0895,"lo2":-89.0444,"dy":0.0017,"dx":0.0017,"nx":28,"ny":28,"refTime":"2024-08-24T21:00:00:Z","depth":0,"parameterNumber":3,"parameterNumberName":"V-component_of_WINDS"},"data":[0,0,0,0,0,0,0,0,0,0,0,0,0,0,0,0,0,0,0,0,0,0,0,0,0,0,0,0,0,0,0,0,0,0,0,0,0,0,0,0,0,0,0,0,0,0,0,0,0,0,0,0,0,0,0,0,0,0,-3.378,-3.3781,0,-3.3892,-3.3893,-3.3894,-3.3884,-3.3882,-3.388,-3.3879,-3.3988,-3.3992,-3.3997,0,0,0,0,0,0,0,0,0,0,0,0,0,-3.3554,-3.3558,-3.378,-3.3781,-3.3783,-3.3891,-3.3893,-3.3894,-3.3884,-3.3882,-3.388,-3.3878,-3.3986,-3.3992,-3.3997,0,0,0,0,0,0,0,0,0,0,0,0,0,-3.3657,-3.3559,-3.378,-3.3791,-3.3793,-3.3891,-3.3893,-3.3895,-3.3884,-3.3882,-3.3879,-3.3877,-3.3985,-3.3991,-3.3998,-3.4091,0,0,-3.4019,-3.4021,0,0,0,0,0,0,0,0,-3.3651,-3.3665,-3.3788,-3.379,-3.3793,-3.3871,-3.3853,-3.396,-3.3885,-3.3849,-3.3878,-3.3875,-3.3951,-3.396,-3.3987,-3.4096,-3.4101,-3.4019,-3.4023,-3.4026,-3.4028,0,0,0,0,0,0,0,-3.3644,-3.3661,-3.3824,-3.3789,-3.3793,-3.3789,-3.3801,-3.3873,-3.3913,-3.3852,-3.3852,-3.3865,-3.3952,-3.398,-3.3989,-3.4102,-3.4019,-3.4025,-3.4029,-3.4032,-3.4293,-3.4296,0,0,0,0,0,0,-3.3635,-3.3655,-3.382,-3.3827,-3.3714,-3.3795,-3.3808,-3.3848,-3.3912,-3.392,-3.3867,-3.3865,-3.397,-3.3981,-3.3993,-3.4105,-3.4026,-3.4032,-3.4036,-3.429,-3.4294,-3.4297,0,0,0,0,0,0,-3.363,-3.365,-3.3816,-3.3741,-3.3762,-3.3802,-3.3847,-3.3852,-3.388,-3.3924,-3.393,-3.389,-3.3968,-3.3983,-3.4067,-3.4109,-3.4035,-3.4042,-3.4287,-3.4291,-3.4295,-3.4332,0,0,0,0,0,0,-3.3624,-3.3648,-3.3685,-3.3742,-3.3766,-3.3889,-3.3849,-3.3856,-3.3893,-3.389,-3.3946,-3.3953,-3.3967,-3.4057,-3.4074,-3.4117,-3.4047,-3.4283,-3.4289,-3.4294,-3.4327,-3.4337,-3.4345,0,0,0,0,0,-3.3616,-3.369,-3.3687,-3.3707,-3.3813,-3.3892,-3.3905,-3.3922,-3.3896,-3.3933,-3.3961,-3.3951,-3.4102,-3.4065,-3.4084,-3.413,-3.4281,-3.4287,-3.4294,-3.4323,-3.4335,-3.4345,0,0,0,0,0,0,-3.3635,-3.3697,-3.3695,-3.379,-3.3836,-3.389,-3.3936,-3.3934,-3.3987,-3.3982,-3.3999,-3.4011,-3.4095,-3.4121,-3.4079,-3.4224,-3.4188,-3.4198,-3.4203,-3.4215,-3.4224,-3.4216,-3.4052,0,0,0,0,0,-3.365,-3.3711,-3.3762,-3.384,-3.3864,-3.3896,-3.3931,-3.394,-3.3988,-3.4007,-3.4041,-3.4086,-3.4144,-3.4181,-3.4236,-3.4331,-3.4342,-3.4372,-3.4381,-3.4388,-3.4397,-3.4448,-3.4462,-3.4318,-3.4318,-3.4318,0,0,-3.3682,-3.3724,-3.3761,-3.3845,-3.3882,-3.3943,-3.3913,-3.3978,-3.4023,-3.4016,-3.4097,-3.4124,-3.4176,-3.4265,-3.4306,-3.4289,-3.4439,-3.4397,-3.4402,-3.4407,-3.4456,-3.447,-3.4482,-3.4323,-3.4322,-3.4321,0,0,-3.3772,-3.381,-3.388,-3.3918,-3.3974,-3.3996,-3.4013,-3.4068,-3.4085,-3.4168,-3.4164,-3.4217,-3.4316,-3.4353,-3.4384,-3.4489,-3.4482,-3.4506,-3.4554,-3.4603,-3.4615,-3.4625,-3.4661,-3.4674,-3.4515,-3.4515,-3.4515,0,-3.3804,-3.3897,-3.3916,-3.3982,-3.4019,-3.4018,-3.4088,-3.4123,-3.4194,-3.4219,-3.42,-3.4324,-3.4359,-3.4456,-3.4482,-3.4508,-3.4527,-3.4499,-3.4612,-3.4622,-3.4632,-3.4666,-3.468,-3.4518,-3.4517,-3.4517,-3.4517,0,-3.3934,-3.3998,-3.4047,-3.4118,-3.416,-3.4228,-3.4256,-3.4296,-3.4302,-3.4325,-3.4408,-3.445,-3.4514,-3.4538,-3.4543,-3.4636,-3.4624,-3.4608,-3.4572,-3.4648,-3.468,-3.4694,-3.4521,-3.452,-3.452,-3.4519,0,0,-3.4037,-3.4118,-3.4136,-3.4167,-3.423,-3.428,-3.4347,-3.4411,-3.4445,-3.4495,-3.4551,-3.4635,-3.4621,-3.4657,-3.4667,-3.4711,-3.479,-3.4689,-3.4691,-3.4706,-3.4894,-3.4905,-3.492,-3.4786,-3.4789,-3.4791,-3.4889,0,-3.4132,-3.4253,-3.4272,-3.4378,-3.4437,-3.4437,-3.4496,-3.454,-3.4563,-3.4616,-3.4641,-3.47,-3.4678,-3.47,-3.4743,-3.4771,-3.4828,-3.4764,-3.4837,-3.4839,-3.4823,-3.4937,-3.4949,-3.5039,-3.4902,-3.4905,-3.4906,0,-3.4258,-3.4313,-3.4425,-3.448,-3.4506,-3.4558,-3.4618,-3.4669,-3.4719,-3.4733,-3.4774,-3.4779,-3.4847,-3.481,-3.4904,-3.486,-3.4891,-3.4909,-3.4913,-3.4919,-3.4876,-3.4945,-3.5069,-3.5082,-3.4927,-3.4925,-3.4924,0,-3.4321,-3.4423,-3.4503,-3.453,-3.4597,-3.4633,-3.4663,-3.471,-3.4747,-3.48,-3.4824,-3.4883,-3.4915,-3.496,-3.498,-3.4951,-3.5072,-3.5036,-3.5084,-3.5084,-3.5109,-3.5107,-3.5238,-3.5131,-3.5131,-3.513,-3.513,0,-3.4424,-3.4493,-3.4532,-3.4581,-3.4657,-3.4678,-3.4753,-3.4781,-3.4823,-3.4876,-3.488,-3.493,-3.4954,-3.5007,-3.5023,-3.5098,-3.5112,-3.5124,-3.5127,-3.5124,-3.5122,-3.5143,-3.5136,-3.5134,-3.5133,-3.5133,-3.5132,0,-3.4507,-3.4536,-3.4623,-3.468,-3.4695,-3.4749,-3.4796,-3.4844,-3.4867,-3.4935,-3.4952,-3.4989,-3.5051,-3.5076,-3.5153,-3.5163,-3.5249,-3.5248,-3.5233,-3.5234,-3.528,-3.5275,-3.5428,-3.5448,-3.5329,-3.533,-3.5331,0,-3.457,-3.4623,-3.4685,-3.4722,-3.4753,-3.4812,-3.4851,-3.4874,-3.4913,-3.4975,-3.5014,-3.5077,-3.5129,-3.5229,-3.5261,-3.532,-3.5319,-3.5369,-3.5328,-3.5322,-3.5318,-3.5315,-3.5319,-3.5376,-3.5377,-3.5378,-3.5379,0,-3.4679,-3.4691,-3.4747,-3.4809,-3.4855,-3.4905,-3.4952,-3.4982,-3.5012,-3.5056,-3.5121,-3.5162,-3.5241,-3.5303,-3.5363,-3.5391,-3.539,-3.5392,-3.5406,-3.5401,-3.539,-3.5396,-3.5252,-3.5388,-3.5387,-3.5386,-3.5386,-3.5385,-3.4753,-3.48,-3.4851,-3.4914,-3.4953,-3.4997,-3.5045,-3.5075,-3.513,-3.5197,-3.5207,-3.5277,-3.5325,-3.5406,-3.5437,-3.5491,-3.5477,-3.5498,-3.5503,-3.5507,-3.551,-3.5383,-3.5502,-3.5502,-3.5501,-3.5501,-3.5501,0,-3.4861,-3.4894,-3.4952,-3.5019,-3.5068,-3.5065,-3.5118,-3.5159,-3.522,-3.5266,-3.5318,-3.5392,-3.5453,-3.5491,-3.5552,-3.5587,-3.5588,-3.5602,-3.5599,-3.5605,-3.5519,-3.55,-3.5601,-3.5601,-3.5601,-3.5601,-3.5601,-3.5601,-3.4922,-3.5001,-3.502,-3.5118,-3.5151,-3.522,-3.525,-3.5291,-3.5328,-3.5412,-3.5463,-3.5488,-3.5531,-3.5595,-3.565,-3.5659,-3.5681,-3.5696,-3.5704,-3.5622,-3.5612,-3.5602,-3.5584,-3.5701,-3.5701,-3.5786,-3.5787,-3.5787]}]]